sat.trackr.live / text

‹ back to catalog

STARLINK-37227

NORAD 68558 · 2026-070S

PAYLOAD ACTIVE UNKNOWN

§ Identity

Operator
Country
US
Launch date
2026-04-02
Launch site
AFETR
Launch vehicle
Mass (kg)
RCS (m²)

Purposes: comms

External: N2YO · Heavens-Above · Gunter

§ Orbital elements

Epoch: 2026-09-19T06:59:34.160640Z

Period
93.85 min
Inclination
53.1583°
Eccentricity
0.0001562
Mean motion
15.34404555 rev/d
Perigee alt
461.6 km
Apogee alt
463.8 km
Semi-major
6,840.8 km
B*
3.7525e-4
RAAN
179.2376°
Arg perigee
80.3575°
Mean anomaly
279.7604°
Rev number
2,625

§ Raw data

STARLINK-372271 68558U 26070S   26262.29136760  .00012325  00000+0  37525-3 0  99962 68558  53.1583 179.2376 0001562  80.3575 279.7604 15.34404555 26252

JSON: /api/v1/satellites/68558 · /tle

For live sub-satellite position, see the globe view (requires WebGL).

§ Visibility from observer

Set your observer location to see the next 7 days of passes ≥ 10°. The values pass through the URL so the page stays shareable.

No JS? Fill the form by hand. The geolocation button needs JavaScript.